• In Romania
  • List of Countries
  • For 7 days
  • Water Temperature
  • Satellite Maps
  • Weather Map
  • Weather Widgets
  • user-avatar
    Login

    Hourly Weather Annaba

    Today, 24 July, Monday

    Time Temperature Precipitation Wind Pressure Humidity
    00:00 +36°C° 0.1 mm 4 mps 760 mmHg 41%
    01:00 +37°C° 0 mm 5 mps 759 mmHg 33%
    02:00 +36°C° 0 mm 5 mps 759 mmHg 37%
    03:00 +35°C° 0 mm 5 mps 758 mmHg 40%
    04:00 +34°C° 0 mm 5 mps 758 mmHg 43%
    05:00 +33°C° 0 mm 4 mps 758 mmHg 48%
    06:00 +33°C° 0 mm 4 mps 759 mmHg 52%
    07:00 +32°C° 0 mm 4 mps 759 mmHg 57%
    08:00 +33°C° 0 mm 4 mps 759 mmHg 56%
    09:00 +34°C° 0 mm 4 mps 759 mmHg 54%
    10:00 +35°C° 0 mm 4 mps 759 mmHg 53%
    11:00 +35°C° 0 mm 4 mps 759 mmHg 51%
    12:00 +36°C° 0 mm 4 mps 759 mmHg 49%
    13:00 +37°C° 0 mm 5 mps 759 mmHg 47%
    14:00 +36°C° 0 mm 5 mps 759 mmHg 49%
    15:00 +35°C° 0 mm 5 mps 758 mmHg 50%
    16:00 +35°C° 0 mm 5 mps 758 mmHg 52%
    17:00 +33°C° 0 mm 5 mps 758 mmHg 57%
    18:00 +32°C° 0 mm 4 mps 759 mmHg 62%
    19:00 +29°C° 0 mm 4 mps 759 mmHg 67%
    20:00 +28°C° 0 mm 3 mps 759 mmHg 72%
    21:00 +27°C° 0 mm 2 mps 760 mmHg 76%
    22:00 +26°C° 0 mm 2 mps 761 mmHg 81%
    23:00 +26°C° 0 mm 2 mps 760 mmHg 82%

    Tomorrow, 25 July, Tuesday

    Time Temperature Precipitation Wind Pressure Humidity
    00:00 +26°C° 0 mm 1 mps 760 mmHg 84%
    01:00 +25°C° 0 mm 1 mps 760 mmHg 85%
    02:00 +25°C° 0 mm 1 mps 760 mmHg 86%
    03:00 +25°C° 0 mm 2 mps 759 mmHg 87%
    04:00 +24°C° 0 mm 2 mps 759 mmHg 88%
    05:00 +25°C° 0 mm 2 mps 759 mmHg 85%
    06:00 +25°C° 0 mm 2 mps 759 mmHg 82%
    07:00 +26°C° 0 mm 2 mps 759 mmHg 79%
    08:00 +27°C° 0 mm 2 mps 759 mmHg 70%
    09:00 +29°C° 0 mm 2 mps 759 mmHg 62%
    10:00 +31°C° 0 mm 3 mps 759 mmHg 53%
    11:00 +33°C° 0 mm 3 mps 759 mmHg 50%
    12:00 +34°C° 0 mm 4 mps 758 mmHg 48%
    13:00 +34°C° 0 mm 5 mps 758 mmHg 45%
    14:00 +34°C° 0 mm 5 mps 758 mmHg 47%
    15:00 +34°C° 0 mm 5 mps 758 mmHg 50%
    16:00 +33°C° 0 mm 5 mps 757 mmHg 52%
    17:00 +32°C° 0 mm 5 mps 757 mmHg 56%
    18:00 +30°C° 0 mm 4 mps 757 mmHg 61%
    19:00 +28°C° 0 mm 4 mps 757 mmHg 65%
    20:00 +27°C° 0 mm 3 mps 758 mmHg 69%
    21:00 +27°C° 0 mm 3 mps 758 mmHg 73%
    22:00 +26°C° 0 mm 2 mps 759 mmHg 77%
    23:00 +25°C° 0 mm 2 mps 758 mmHg 78%

    Day after tomorrow, 26 July, Wednesday

    Time Temperature Precipitation Wind Pressure Humidity
    00:00 +25°C° 0 mm 2 mps 758 mmHg 79%
    01:00 +25°C° 0 mm 2 mps 758 mmHg 81%
    02:00 +24°C° 0 mm 2 mps 758 mmHg 82%
    03:00 +24°C° 0 mm 2 mps 758 mmHg 84%
    04:00 +24°C° 0 mm 2 mps 758 mmHg 86%
    05:00 +24°C° 0 mm 2 mps 758 mmHg 82%
    06:00 +24°C° 0 mm 2 mps 758 mmHg 79%
    07:00 +25°C° 0 mm 2 mps 758 mmHg 76%
    08:00 +27°C° 0 mm 2 mps 758 mmHg 66%
    09:00 +29°C° 0 mm 2 mps 758 mmHg 56%
    10:00 +30°C° 0 mm 2 mps 758 mmHg 45%
    11:00 +31°C° 0 mm 3 mps 758 mmHg 42%
    12:00 +33°C° 0 mm 4 mps 758 mmHg 40%
    13:00 +34°C° 0 mm 5 mps 758 mmHg 37%
    14:00 +34°C° 0 mm 5 mps 758 mmHg 39%
    15:00 +33°C° 0 mm 5 mps 758 mmHg 41%
    16:00 +33°C° 0 mm 5 mps 757 mmHg 43%
    17:00 +32°C° 0 mm 4 mps 758 mmHg 48%
    18:00 +30°C° 0 mm 4 mps 758 mmHg 53%
    19:00 +28°C° 0 mm 3 mps 758 mmHg 58%
    20:00 +27°C° 0 mm 3 mps 758 mmHg 64%
    21:00 +26°C° 0 mm 2 mps 759 mmHg 70%
    22:00 +25°C° 0 mm 2 mps 759 mmHg 76%
    23:00 +25°C° 0 mm 2 mps 759 mmHg 77%

    27 July, Thursday

    Time Temperature Precipitation Wind Pressure Humidity
    00:00 +25°C° 0 mm 2 mps 759 mmHg 79%
    01:00 +24°C° 0 mm 2 mps 759 mmHg 80%
    02:00 +24°C° 0 mm 2 mps 759 mmHg 80%
    03:00 +24°C° 0 mm 2 mps 758 mmHg 81%
    04:00 +23°C° 0 mm 2 mps 758 mmHg 81%
    05:00 +24°C° 0 mm 2 mps 759 mmHg 76%
    06:00 +25°C° 0 mm 2 mps 759 mmHg 71%
    07:00 +25°C° 0 mm 2 mps 759 mmHg 67%
    08:00 +27°C° 0 mm 2 mps 759 mmHg 58%
    09:00 +29°C° 0 mm 2 mps 759 mmHg 49%
    10:00 +31°C° 0 mm 2 mps 759 mmHg 40%
    11:00 +33°C° 0 mm 3 mps 759 mmHg 37%
    12:00 +34°C° 0 mm 4 mps 759 mmHg 34%
    13:00 +35°C° 0 mm 4 mps 759 mmHg 31%
    14:00 +35°C° 0 mm 4 mps 759 mmHg 32%
    15:00 +35°C° 0 mm 4 mps 759 mmHg 33%
    16:00 +35°C° 0 mm 4 mps 759 mmHg 33%
    17:00 +34°C° 0 mm 3 mps 759 mmHg 37%
    18:00 +33°C° 0 mm 3 mps 759 mmHg 41%
    19:00 +31°C° 0 mm 2 mps 759 mmHg 44%
    20:00 +29°C° 0 mm 2 mps 759 mmHg 49%
    21:00 +28°C° 0 mm 1 mps 760 mmHg 54%
    22:00 +27°C° 0 mm 1 mps 760 mmHg 59%
    23:00 +27°C° 0 mm 1 mps 760 mmHg 59%

    28 July, Friday

    Time Temperature Precipitation Wind Pressure Humidity
    00:00 +26°C° 0 mm 1 mps 760 mmHg 58%
    01:00 +26°C° 0 mm 1 mps 760 mmHg 58%
    02:00 +26°C° 0 mm 1 mps 760 mmHg 57%
    03:00 +26°C° 0 mm 1 mps 759 mmHg 57%
    04:00 +26°C° 0 mm 1 mps 759 mmHg 56%
    05:00 +27°C° 0 mm 1 mps 760 mmHg 53%
    06:00 +27°C° 0 mm 1 mps 760 mmHg 50%
    07:00 +28°C° 0 mm 1 mps 760 mmHg 47%
    08:00 +30°C° 0 mm 1 mps 760 mmHg 41%
    09:00 +32°C° 0 mm 1 mps 761 mmHg 35%
    10:00 +36°C° 0 mm 2 mps 761 mmHg 29%
    11:00 +36°C° 0 mm 2 mps 761 mmHg 28%
    12:00 +37°C° 0 mm 3 mps 761 mmHg 27%
    13:00 +38°C° 0 mm 4 mps 760 mmHg 26%
    14:00 +38°C° 0 mm 4 mps 760 mmHg 27%
    15:00 +38°C° 0 mm 4 mps 760 mmHg 28%
    16:00 +38°C° 0 mm 4 mps 760 mmHg 29%
    17:00 +36°C° 0 mm 3 mps 760 mmHg 32%
    18:00 +35°C° 0 mm 3 mps 760 mmHg 35%
    19:00 +34°C° 0 mm 2 mps 760 mmHg 38%
    20:00 +32°C° 0 mm 2 mps 761 mmHg 42%
    21:00 +30°C° 0 mm 2 mps 761 mmHg 45%
    22:00 +29°C° 0 mm 2 mps 761 mmHg 49%
    23:00 +28°C° 0 mm 2 mps 761 mmHg 49%

    29 July, Saturday

    Time Temperature Precipitation Wind Pressure Humidity
    00:00 +28°C° 0 mm 2 mps 761 mmHg 48%
    01:00 +28°C° 0 mm 2 mps 761 mmHg 48%
    02:00 +28°C° 0 mm 2 mps 761 mmHg 47%
    03:00 +28°C° 0 mm 2 mps 761 mmHg 46%
    04:00 +28°C° 0 mm 2 mps 760 mmHg 45%
    05:00 +29°C° 0 mm 2 mps 761 mmHg 42%
    06:00 +29°C° 0 mm 2 mps 761 mmHg 40%
    07:00 +30°C° 0 mm 2 mps 761 mmHg 38%
    08:00 +34°C° 0 mm 2 mps 761 mmHg 33%
    09:00 +37°C° 0 mm 2 mps 761 mmHg 28%
    10:00 +39°C° 0 mm 2 mps 761 mmHg 23%
    11:00 +40°C° 0 mm 3 mps 761 mmHg 21%
    12:00 +42°C° 0 mm 3 mps 760 mmHg 20%
    13:00 +43°C° 0 mm 4 mps 760 mmHg 18%
    14:00 +43°C° 0 mm 4 mps 760 mmHg 19%
    15:00 +43°C° 0 mm 5 mps 760 mmHg 19%
    16:00 +43°C° 0 mm 5 mps 759 mmHg 20%
    17:00 +42°C° 0 mm 5 mps 759 mmHg 22%
    18:00 +40°C° 0 mm 5 mps 759 mmHg 25%
    19:00 +39°C° 0 mm 5 mps 759 mmHg 27%
    20:00 +36°C° 0 mm 4 mps 759 mmHg 31%
    21:00 +35°C° 0 mm 4 mps 760 mmHg 34%
    22:00 +33°C° 0 mm 3 mps 760 mmHg 37%
    23:00 +33°C° 0 mm 3 mps 760 mmHg 37%
    Show more